Starlink 33773

operational
NORAD ID: 63713 Int'l Des: 2025-087 Owner: SPXS Country: US Constellation: starlink
LEOCIRCULAR

Über Starlink 33773

Beschreibung wird geladen...

Live-Position

3D-Globus wird geladen...

Nächste Überflüge

Höhenverlauf

Altitude vs Time

uPlot chart will show altitude changes over time

Zweizeiliger Elementsatz

1 63713U 25087S 25306.13983632 .00041481 00000-0 14047-2 0 9999
2 63713 53.1595 91.8327 0001613 85.3462 274.7723 15.30202372 29670
Epoch: 2. Nov. 2025 • Age: 19 hours

Aktueller Status

Höhe 480.4 km
Geschwindigkeit 7.63 km/s
Subsatellitenpunkt 52.93°N, 166.45°E
Startdatum 28. Apr. 2025
Alter 0.5 years
Typ internet

Technische Details

Klassifizierung Payload
Masse 575.00 kg
Trockenmasse 530.00 kg
Gesamtmasse 575.00 kg
Länge 0.30 m
Durchmesser 4.10 m
Spannweite 29.00 m
Form Box + pan
Hersteller SPXS
Bus-Typ Starlink V2MO
Phasenstatus In Orbit
Besitzer/Staat SPXS/US

Große Konstellationen

Loading constellations...